Location: Unspecified
(0.0000°N, 0.0000°E)
Time: 11:15:57
(UTC+00:00)

SR - Pass Details

Date: 20 November 2019
Orbit: 573 x 882 km, 66.7° (Epoch: 13 December)

Event Time Altitude Azimuth Distance (km) Brightness Sun altitude
Rises 12:45:11 0° 197° (SSW) 2,893 ? 65.5°
Reaches altitude 10° 12:47:22 10° 195° (SSW) 2,023 ? 65.2°
Maximum altitude 12:51:56 76° 110° (ESE) 697 ? 64.5°
Drops below altitude 10° 12:56:55 10° 24° (NNE) 2,205 ? 63.7°
Sets 12:59:23 0° 23° (NNE) 3,178 ? 63.3°
